Code,Year,DOY,HHMM,TIMESTAMP,wd,ws_min,ws,ws_max,Ta,RH,P,Rain,Hail,K_down_SPN1,K_diff_SPN1,L_down,K_down_Knz,K_down_KnZ
235178,2023,121,0000,2023-05-01 00:00:00,276.6,3.875,4.302,4.723,6.1,70.87,1009,0,0,4.011,2.458,318.97,-17.28,
235179,2023,121,0005,2023-05-01 00:05:00,284.6,3.18,3.518,3.838,6.1,71.13,1009,0,0,3.886,2.518,319.7,-16.55,
235180,2023,121,0010,2023-05-01 00:10:00,283.4,3.582,3.958,4.33,6.1,71.17,1009,0,0,3.914,2.416,320.19,-16.06,
235181,2023,121,0015,2023-05-01 00:15:00,282,3.18,3.437,3.703,6.1,71.53,1009,0,0,3.941,2.52,321.41,-14.84,
235182,2023,121,0020,2023-05-01 00:20:00,289.8,3.362,3.667,3.978,6.1,71.74,1009,0,0,4.027,2.46,320.38,-15.87,
235183,2023,121,0025,2023-05-01 00:25:00,291.9,3.173,3.542,3.918,6.1,71.76,1009,0,0,4.037,2.634,319.13,-17.12,
235184,2023,121,0030,2023-05-01 00:30:00,286.7,3.538,3.977,4.397,6.1,71.99,1008,0,0,4.043,2.62,315.06,-21.19,
235185,2023,121,0035,2023-05-01 00:35:00,282.3,3.51,3.873,4.218,6.1,71.91,1008,0,0,4.089,2.526,318.43,-17.82,
235186,2023,121,0040,2023-05-01 00:40:00,287.6,3.675,3.97,4.285,6.1,71.83,1008,0,0,4.006,2.651,319.01,-17.24,
235187,2023,121,0045,2023-05-01 00:45:00,272.8,2.787,3.048,3.3,6.1,72.05,1008,0,0,4.002,2.552,319.68,-16.57,
235188,2023,121,0050,2023-05-01 00:50:00,277.5,2.732,2.955,3.192,6.1,72.09,1008,0,0,4.07,2.729,320.04,-16.21,
235189,2023,121,0055,2023-05-01 00:55:00,281.3,3.743,4.042,4.338,6.1,72.06,1008,0,0,3.927,2.498,320.49,-15.76,
235190,2023,121,0100,2023-05-01 01:00:00,283.4,3.213,3.498,3.772,6.1,72.12,1008,0,0,4.031,2.413,320.61,-15.64,
235191,2023,121,0105,2023-05-01 01:05:00,280.5,3.132,3.418,3.688,6.1,72.01,1008,0,0,3.986,2.663,319.46,-16.79,
235192,2023,121,0110,2023-05-01 01:10:00,272.8,2.452,2.698,2.93,6.12,72.21,1008,0.083,0,4.912,3.492,320.84,-15.41,
235193,2023,121,0115,2023-05-01 01:15:00,274.3,3.212,3.498,3.8,6.1,72.96,1008,0.252,0,6.026,4.5,325.64,-10.13,
235194,2023,121,0120,2023-05-01 01:20:00,270,4.313,4.75,5.2,5.867,69.15,1008,0.622,0,7.651,6.079,328.48,-4.872,
235195,2023,121,0125,2023-05-01 01:25:00,256.2,3.872,4.263,4.675,5.5,64.87,1008,0.21,0,8.12,6.539,327.16,-3.795,
235196,2023,121,0130,2023-05-01 01:30:00,257.7,2.83,3.177,3.493,5.18,62.93,1008,0.153,0,7.11,5.52,325.8,-3.244,
235197,2023,121,0135,2023-05-01 01:35:00,267.2,2.383,2.615,2.822,4.933,63.14,1008,0.147,0,6.531,4.821,325.45,-2.64,
235198,2023,121,0140,2023-05-01 01:40:00,256.6,2.135,2.298,2.47,4.787,65.7,1008,0.153,0,5.228,3.793,325.05,-2.091,
235199,2023,121,0145,2023-05-01 01:45:00,267.5,1.708,1.898,2.095,4.673,67.69,1008,0.62,0,4.845,3.305,325.05,-1.612,
235200,2023,121,0150,2023-05-01 01:50:00,256.9,1.838,2.007,2.183,4.6,68.06,1008,0.358,0,4.628,3.164,324.66,-1.524,
235201,2023,121,0155,2023-05-01 01:55:00,249,2.1,2.272,2.455,4.6,68.85,1008,0.118,0,4.311,2.879,324.61,-1.573,
235202,2023,121,0200,2023-05-01 02:00:00,249.2,1.928,2.072,2.237,4.553,71.19,1008,0.213,0,3.865,2.392,324.86,-1.323,
235203,2023,121,0205,2023-05-01 02:05:00,237.1,2.215,2.398,2.558,4.5,72.99,1008,0.392,0,3.622,1.927,324.87,-1.321,
235204,2023,121,0210,2023-05-01 02:10:00,250.3,1.993,2.165,2.34,4.527,73.59,1008,0.085,0,3.735,2.204,324.89,-1.294,
235205,2023,121,0215,2023-05-01 02:15:00,256.9,1.88,2.072,2.267,4.6,74.25,1008,0.043,0,3.602,2.188,325.01,-1.178,
235206,2023,121,0220,2023-05-01 02:20:00,253.9,1.933,2.095,2.263,4.573,75.74,1008,0.003,0,3.692,2.226,325.57,-1.088,
235207,2023,121,0225,2023-05-01 02:25:00,250.4,1.823,1.988,2.147,4.5,76.97,1008,0,0,3.775,2.282,325.62,-1.045,
235208,2023,121,0230,2023-05-01 02:30:00,251.1,1.867,2.065,2.255,4.48,75.5,1008,0,0,4.14,2.676,325.06,-1.124,
235209,2023,121,0235,2023-05-01 02:35:00,250.4,2.182,2.382,2.597,4.547,75.55,1007,0,0,3.932,2.463,325.57,-1.091,
235210,2023,121,0240,2023-05-01 02:40:00,240.4,2.025,2.162,2.312,4.6,77.29,1007,0.013,0,3.651,2.306,325.75,-0.916,
235211,2023,121,0245,2023-05-01 02:45:00,239,1.86,2.003,2.153,4.533,79.58,1007,0,0,3.577,2.155,325.91,-0.756,
235212,2023,121,0250,2023-05-01 02:50:00,229.3,1.477,1.63,1.795,4.5,80.8,1007,0,0,3.552,2.093,326.46,-0.672,
235213,2023,121,0255,2023-05-01 02:55:00,208.8,1.157,1.282,1.407,4.473,81.8,1007,0,0,3.943,2.359,326.56,-0.573,
235214,2023,121,0300,2023-05-01 03:00:00,209.3,1.29,1.477,1.642,4.4,82.5,1007,0,0,3.802,2.564,326.08,-0.577,
235215,2023,121,0305,2023-05-01 03:05:00,206.4,1.432,1.592,1.77,4.4,83,1007,0,0,3.776,2.317,326.6,-0.532,
235216,2023,121,0310,2023-05-01 03:10:00,212.7,2.04,2.205,2.378,4.407,83.3,1007,0,0,3.695,2.298,326.46,-0.681,
235217,2023,121,0315,2023-05-01 03:15:00,211.1,2.048,2.262,2.482,4.5,83.8,1007,0.055,0,3.69,2.22,326.58,-0.557,
235218,2023,121,0320,2023-05-01 03:20:00,205,2.077,2.277,2.482,4.5,84.6,1007,0.028,0,3.637,2.14,327.15,-0.457,
235219,2023,121,0325,2023-05-01 03:25:00,212.9,2.157,2.373,2.605,4.5,85.2,1007,0.043,0,3.75,2.217,327.15,-0.465,
235220,2023,121,0330,2023-05-01 03:30:00,212.2,2.532,2.762,2.987,4.5,85.8,1007,0.1,0,3.621,2.009,327.17,-0.443,
235221,2023,121,0335,2023-05-01 03:35:00,212.4,2.733,2.963,3.183,4.547,86.3,1007,0.02,0,3.49,2.054,327.61,-0.472,
235222,2023,121,0340,2023-05-01 03:40:00,222.8,2.158,2.435,2.72,4.6,86.6,1007,0.377,0,3.717,2.173,327.59,-0.494,
235223,2023,121,0345,2023-05-01 03:45:00,221.2,1.513,1.772,2.035,4.605,86.8,1007,0.655,0,3.699,2.252,328.07,-0.495,
235224,2023,121,0350,2023-05-01 03:50:00,228,1.923,2.222,2.503,4.687,86.9,1007,1.387,0,3.799,2.338,328.05,-0.516,
235225,2023,121,0355,2023-05-01 03:55:00,227.3,2.343,2.567,2.793,4.633,87,1007,0.455,0,4.087,2.609,328.05,-0.515,
235226,2023,121,0400,2023-05-01 04:00:00,227.4,2.317,2.592,2.86,4.6,86.8,1007,0.138,0,4.198,2.93,328.02,-0.545,
235227,2023,121,0405,2023-05-01 04:05:00,229.3,1.517,1.705,1.88,4.6,87,1006,2.268,0,4.221,2.815,328.07,-0.494,
235228,2023,121,0410,2023-05-01 04:10:00,216.6,1.617,1.82,2.013,4.6,87,1006,1.213,0,4.29,2.988,327.6,-0.485,
235229,2023,121,0415,2023-05-01 04:15:00,222.8,1.48,1.645,1.817,4.575,87,1006,1.595,0,4.423,3.058,327.63,-0.461,
235230,2023,121,0420,2023-05-01 04:20:00,217.4,2.005,2.193,2.378,4.5,87,1006,1.167,0,4.605,3.106,327.67,-0.419,
235231,2023,121,0425,2023-05-01 04:25:00,198.5,1.783,1.945,2.107,4.5,87.1,1006,0.813,0,5.021,3.467,327.66,-0.428,
235232,2023,121,0430,2023-05-01 04:30:00,207.4,1.245,1.413,1.597,4.5,87.2,1006,0.207,0,5.067,3.533,327.76,-0.324,
235233,2023,121,0435,2023-05-01 04:35:00,200.5,1.52,1.69,1.857,4.5,87.4,1006,0.04,0,5.274,3.74,327.82,-0.263,
235234,2023,121,0440,2023-05-01 04:40:00,193,1.343,1.503,1.66,4.5,87.8,1006,0.452,0,5.915,4.359,327.87,-0.212,
235235,2023,121,0445,2023-05-01 04:45:00,204.6,1.587,1.738,1.915,4.5,87.9,1006,0.383,0,8.13,6.552,327.88,-0.204,
235236,2023,121,0450,2023-05-01 04:50:00,188.6,1.543,1.725,1.918,4.505,88,1006,0.008,0,7.857,6.232,327.87,-0.217,
235237,2023,121,0455,2023-05-01 04:55:00,184,0.97,1.135,1.31,4.6,88.2,1006,0.063,0,7.814,6.201,328.43,-0.132,
235238,2023,121,0500,2023-05-01 05:00:00,199.1,1.592,1.808,2.025,4.6,88.3,1006,0,0,8.85,7.307,328.47,-0.092,
235239,2023,121,0505,2023-05-01 05:05:00,176,1.157,1.383,1.588,4.6,88.5,1006,0,0,8.49,6.974,328.44,-0.118,
235240,2023,121,0510,2023-05-01 05:10:00,183.3,1.728,1.997,2.268,4.6,88.5,1006,0.003,0,9.3,7.756,328.92,-0.123,
235241,2023,121,0515,2023-05-01 05:15:00,212.4,1.645,1.845,2.038,4.6,88.7,1006,0.323,0,10.84,9.25,328.93,-0.109,
235242,2023,121,0520,2023-05-01 05:20:00,211.3,1.845,2.077,2.302,4.685,88.8,1006,0.523,0,10.17,8.66,328.92,-0.116,
235243,2023,121,0525,2023-05-01 05:25:00,215.3,2.333,2.608,2.858,4.79,89,1006,2.843,0,11.18,9.58,329.39,-0.127,
235244,2023,121,0530,2023-05-01 05:30:00,225.6,3.068,3.448,3.848,4.905,88.8,1005,1.08,0,12.38,10.77,329.84,-0.153,
235245,2023,121,0535,2023-05-01 05:35:00,220.8,2.712,2.993,3.29,5,88.4,1005,0,0,11.31,9.71,330.29,-0.178,
235246,2023,121,0540,2023-05-01 05:40:00,224.3,2.683,2.977,3.295,5.065,88,1005,0.01,0,10.94,9.2,330.78,-0.167,
235247,2023,121,0545,2023-05-01 05:45:00,227.3,4.37,4.765,5.148,5.125,87.9,1005,0,0,13.03,11.4,330.79,-0.166,
235248,2023,121,0550,2023-05-01 05:50:00,219.4,3.555,3.858,4.195,5.225,87.8,1005,0.02,0,12.45,10.77,331.24,-0.188,
235249,2023,121,0555,2023-05-01 05:55:00,226.7,2.897,3.225,3.565,5.3,87.8,1005,0,0,17.18,15.26,331.85,-0.061,
235250,2023,121,0600,2023-05-01 06:00:00,227.2,3.517,3.875,4.228,5.305,87.8,1005,0,0,14.35,12.74,331.79,-0.122,
235251,2023,121,0605,2023-05-01 06:05:00,223.7,3.157,3.525,3.895,5.4,87.9,1005,0,0,13.72,12,332.27,-0.124,
235252,2023,121,0610,2023-05-01 06:10:00,214,3.54,3.86,4.172,5.425,87.8,1005,0,0,14.28,12.7,332.22,-0.166,
235253,2023,121,0615,2023-05-01 06:15:00,209.4,3.743,4.137,4.492,5.5,87.6,1005,0,0,17.9,16.16,332.69,-0.179,
235254,2023,121,0620,2023-05-01 06:20:00,205.8,2.77,3.053,3.37,5.5,87.3,1005,0,0,22.44,20.78,333.28,-0.069,
235255,2023,121,0625,2023-05-01 06:25:00,204.8,3.402,3.745,4.117,5.525,87,1005,0,0,32.9,31.35,333.33,-0.019,
235256,2023,121,0630,2023-05-01 06:30:00,207.3,2.757,3.083,3.41,5.6,86.7,1005,0,0,36.78,34.91,333.86,0.027,
235257,2023,121,0635,2023-05-01 06:35:00,209.6,2.287,2.567,2.85,5.647,86.5,1005,0,0,39.59,37.7,333.94,0.107,
235258,2023,121,0640,2023-05-01 06:40:00,203.5,3.087,3.362,3.635,5.702,86.3,1005,0,0,45.62,43.8,334.43,0.114,
235259,2023,121,0645,2023-05-01 06:45:00,212.4,4.002,4.317,4.628,5.785,86,1005,0,0,45.89,44.32,334.78,-0.016,
235260,2023,121,0650,2023-05-01 06:50:00,208.4,2.193,2.425,2.658,5.865,85.9,1005,0,0,48.47,46.38,335.06,0.261,
235261,2023,121,0655,2023-05-01 06:55:00,197.5,2.728,3.053,3.392,5.9,86,1005,0,0,61.55,59.48,335.71,0.426,
235262,2023,121,0700,2023-05-01 07:00:00,199.8,2.687,3.007,3.318,5.9,85.9,1005,0,0,65.9,63.79,336.22,0.457,
235263,2023,121,0705,2023-05-01 07:05:00,192.3,2.047,2.298,2.552,5.983,86.1,1005,0,0,78.29,75.9,336.61,0.841,
235264,2023,121,0710,2023-05-01 07:10:00,184.5,1.545,1.817,2.083,6,86.2,1005,0,0,82.7,79.83,337.17,0.915,
235265,2023,121,0715,2023-05-01 07:15:00,200.2,2.982,3.305,3.64,6,86.1,1004,0,0,101,98.2,337.76,1.028,
235266,2023,121,0720,2023-05-01 07:20:00,202.1,2.937,3.29,3.638,6.063,85.8,1004,0,0,122.3,119.7,337.99,1.256,
235267,2023,121,0725,2023-05-01 07:25:00,191,2.42,2.872,3.272,6.143,85.3,1004,0,0,124.8,121.9,338.53,1.308,
235268,2023,121,0730,2023-05-01 07:30:00,184.4,2.19,2.595,3.012,6.243,84.8,1004,0,0,138.6,135.2,339.68,1.486,
235269,2023,121,0735,2023-05-01 07:35:00,189.6,3.51,3.918,4.302,6.343,84,1004,0,0,163.7,161.7,338.73,0.045,
235270,2023,121,0740,2023-05-01 07:40:00,192.7,3.353,3.813,4.263,6.487,81.9,1004,0,0,201.4,193.9,313.18,-25.99,
235271,2023,121,0745,2023-05-01 07:45:00,195.7,3.272,3.648,4.02,6.663,82.1,1004,0,0,253.4,227.7,310.3,-29.85,
235272,2023,121,0750,2023-05-01 07:50:00,200.2,2.572,2.91,3.225,6.807,82.1,1004,0,0,282.1,244.6,310.73,-30.88,
235273,2023,121,0755,2023-05-01 07:55:00,199.8,3.177,3.537,3.897,6.963,81.3,1004,0,0,255,240.6,314.88,-27.72,
235274,2023,121,0800,2023-05-01 08:00:00,195,3.972,4.423,4.872,7.087,80.6,1004,0,0,245.7,241.5,316.27,-26.82,
235275,2023,121,0805,2023-05-01 08:05:00,206.2,4.568,4.985,5.427,7.243,79.41,1004,0,0,268.5,256.8,319.25,-23.84,
235276,2023,121,0810,2023-05-01 08:10:00,202.8,3.96,4.438,4.925,7.427,79.13,1004,0,0,229.7,224.1,327.74,-16.33,
235277,2023,121,0815,2023-05-01 08:15:00,206.1,4.52,4.985,5.452,7.563,78.24,1004,0,0,285.4,275,320.71,-24.35,
235278,2023,121,0820,2023-05-01 08:20:00,206.1,4.407,4.882,5.342,7.643,78.01,1004,0,0,279.8,265.4,322.4,-23.65,
235279,2023,121,0825,2023-05-01 08:25:00,209.9,4.043,4.478,4.907,7.7,78.33,1003,0,0,255.7,246,323.89,-22.66,
235280,2023,121,0830,2023-05-01 08:30:00,212,4.383,4.838,5.277,7.7,78.52,1003,0,0,213.3,210.4,326.71,-19.34,
235281,2023,121,0835,2023-05-01 08:35:00,217,5.043,5.585,6.107,7.7,78.54,1003,0.03,0,183.2,180.3,330.84,-15.21,
235282,2023,121,0840,2023-05-01 08:40:00,216.5,4.82,5.217,5.618,7.7,78.33,1003,0.173,0,179.9,177.1,333.86,-11.2,
235283,2023,121,0845,2023-05-01 08:45:00,214.6,5.075,5.623,6.175,7.7,78.56,1003,0.09,0,163.9,160.8,334.34,-10.23,
235284,2023,121,0850,2023-05-01 08:50:00,219.6,5.172,5.6,6.04,7.7,79.21,1003,0.023,0,134.3,131.2,331.73,-12.34,
235285,2023,121,0855,2023-05-01 08:55:00,216.1,3.717,4.14,4.555,7.7,79.78,1003,0.033,0,117.7,114.9,334.7,-9.37,
235286,2023,121,0900,2023-05-01 09:00:00,212.9,4.555,4.998,5.418,7.68,79.19,1003,0,0,121,119,333.61,-10.46,
235287,2023,121,0905,2023-05-01 09:05:00,217.9,4.902,5.337,5.797,7.723,78.07,1003,0,0,194.7,187.2,329.58,-14.49,
235288,2023,121,0910,2023-05-01 09:10:00,219.3,3.768,4.29,4.802,7.843,77.7,1003,0,0,193.8,188.9,329.35,-16.21,
235289,2023,121,0915,2023-05-01 09:15:00,210.1,4.648,5.117,5.6,7.963,76.18,1003,0,0,234.7,230.4,326.77,-19.78,
235290,2023,121,0920,2023-05-01 09:20:00,215.6,6.428,6.882,7.362,8.02,74.23,1003,0,0,251.1,246.6,323.82,-23.22,
235291,2023,121,0925,2023-05-01 09:25:00,214,5.393,5.988,6.58,8.1,73.67,1003,0,0,195.8,192.3,325.85,-21.69,
235292,2023,121,0930,2023-05-01 09:30:00,218,7.673,8.4,9.11,8.1,72.88,1003,0,0,235.5,230.2,325.8,-22.24,
235293,2023,121,0935,2023-05-01 09:35:00,216.9,6.753,7.445,8.12,8.1,72.87,1003,0,0,202.5,198.6,327.01,-21.03,
235294,2023,121,0940,2023-05-01 09:40:00,218.2,4.442,4.912,5.417,8.2,73.56,1003,0,0,155.2,151.4,327.78,-20.75,
235295,2023,121,0945,2023-05-01 09:45:00,215.1,5.132,5.59,6.095,8.2,73.83,1003,0,0,146.2,143.1,327.82,-20.71,
235296,2023,121,0950,2023-05-01 09:50:00,214.4,5.698,6.193,6.693,8.2,73.84,1003,0,0,165.5,161.9,328.59,-19.94,
235297,2023,121,0955,2023-05-01 09:55:00,213.6,6.618,7.237,7.822,8.2,73.19,1003,0,0,177.8,174.6,328.98,-19.06,
235298,2023,121,1000,2023-05-01 10:00:00,216.3,5.818,6.45,7.072,8.2,73.48,1003,0,0,186,182.4,329.89,-18.64,
235299,2023,121,1005,2023-05-01 10:05:00,215.9,4.997,5.513,6.017,8.3,73.93,1003,0,0,184.9,179.9,330.4,-18.63,
235300,2023,121,1010,2023-05-01 10:10:00,214.2,6.253,6.762,7.353,8.3,74.35,1002,0,0,189,184.4,330.31,-18.72,
235301,2023,121,1015,2023-05-01 10:15:00,218.8,5.785,6.392,6.97,8.3,74.32,1002,0,0,183.4,179.7,330.6,-17.93,
235302,2023,121,1020,2023-05-01 10:20:00,212.8,4.445,4.945,5.413,8.3,75,1002,0,0,181.3,176.9,331.97,-16.56,
235303,2023,121,1025,2023-05-01 10:25:00,215.7,6.043,6.78,7.557,8.3,74.94,1002,0.013,0,180.5,176.1,332.85,-15.68,
235304,2023,121,1030,2023-05-01 10:30:00,216.8,5.785,6.443,7.11,8.3,75.09,1002,0.057,0,160,156,333.87,-13.67,
235305,2023,121,1035,2023-05-01 10:35:00,214.7,4.845,5.335,5.822,8.24,75.91,1002,0.023,0,144.2,140.1,334.27,-12.77,
235306,2023,121,1040,2023-05-01 10:40:00,217,5.032,5.622,6.23,8.2,76.37,1002,0,0,143.1,139.3,331.43,-15.61,
235307,2023,121,1045,2023-05-01 10:45:00,216.4,6.082,6.64,7.183,8.2,76.03,1002,0,0,158.1,154,330.38,-17.16,
235308,2023,121,1050,2023-05-01 10:50:00,218.8,6.218,6.792,7.348,8.28,75.79,1002,0.08,0,142.2,138.6,330.88,-16.66,
235309,2023,121,1055,2023-05-01 10:55:00,219.3,5.798,6.372,6.91,8.3,75.59,1002,0.115,0,158.3,154.6,332.11,-15.43,
235310,2023,121,1100,2023-05-01 11:00:00,212.2,4.682,5.217,5.713,8.34,76.12,1002,0.052,0,175.9,172.6,336.53,-11.01,
235311,2023,121,1105,2023-05-01 11:05:00,212.9,5.232,5.752,6.282,8.4,75.68,1002,0.05,0,162,158.5,335.6,-11.94,
235312,2023,121,1110,2023-05-01 11:10:00,217.1,6.062,6.542,7.02,8.4,75.28,1002,0.12,0,158.4,155,333.09,-14.45,
235313,2023,121,1115,2023-05-01 11:15:00,217.2,4.988,5.413,5.842,8.44,75.72,1002,0,0,181.2,176.4,334.3,-13.74,
235314,2023,121,1120,2023-05-01 11:20:00,216.7,6.535,7.107,7.682,8.52,75.18,1002,0,0,196,189.6,333.32,-15.21,
235315,2023,121,1125,2023-05-01 11:25:00,221.6,5.585,6.225,6.8,8.6,74.66,1002,0,0,176.1,171.2,332.76,-15.77,
235316,2023,121,1130,2023-05-01 11:30:00,214.9,7.807,8.41,9.04,8.6,74.23,1002,0.033,0,214.4,207.8,332.83,-16.2,
235317,2023,121,1135,2023-05-01 11:35:00,222.6,5.308,5.877,6.452,8.6,75,1002,0.01,0,237.6,229.1,332.19,-16.84,
235318,2023,121,1140,2023-05-01 11:40:00,215.4,5.552,6.145,6.765,8.72,74.92,1002,0,0,301.7,293.1,331.5,-19.03,
235319,2023,121,1145,2023-05-01 11:45:00,220.4,5.957,6.64,7.277,8.82,74.65,1002,0,0,290.4,281.6,329.98,-21.55,
235320,2023,121,1150,2023-05-01 11:50:00,216.4,6.768,7.255,7.75,8.92,73.84,1001,0,0,339.5,328.9,330.95,-21.58,
235321,2023,121,1155,2023-05-01 11:55:00,214.4,5.243,5.867,6.512,9.12,72.77,1001,0,0,386.9,366.2,330.62,-23.42,
235322,2023,121,1200,2023-05-01 12:00:00,215.1,5.47,6.05,6.683,9.32,71.89,1001,0,0,405.8,370,330.42,-25.14,
235323,2023,121,1205,2023-05-01 12:05:00,219.8,5.487,6.052,6.592,9.44,71.41,1001,0,0,326.3,315.2,330.95,-25.62,
235324,2023,121,1210,2023-05-01 12:10:00,217.1,7.223,7.952,8.67,9.46,70.35,1001,0,0,350.6,339.2,330.34,-25.72,
235325,2023,121,1215,2023-05-01 12:15:00,220.7,6.835,7.457,8.1,9.5,70.14,1001,0,0,342.4,331.4,331.1,-25.47,
235326,2023,121,1220,2023-05-01 12:20:00,223.8,5.623,6.288,6.9,9.52,70.22,1001,0,0,362,345.3,330,-26.57,
235327,2023,121,1225,2023-05-01 12:25:00,220.5,6.757,7.353,7.917,9.66,70.24,1001,0,0,375.9,348.1,329.87,-27.71,
235328,2023,121,1230,2023-05-01 12:30:00,221.2,6.045,6.653,7.263,9.62,70.24,1001,0,0,373.6,350.8,330.94,-26.64,
235329,2023,121,1235,2023-05-01 12:35:00,222,5.303,5.928,6.558,9.74,69.84,1001,0,0,305.5,297.4,331,-27.09,
235330,2023,121,1240,2023-05-01 12:40:00,218.5,6.082,6.675,7.27,9.76,69.94,1001,0,0,222.3,217.6,331.62,-25.96,
235331,2023,121,1245,2023-05-01 12:45:00,217.2,7.307,7.993,8.69,9.54,70.68,1001,0,0,217.9,212,331.84,-24.22,
235332,2023,121,1250,2023-05-01 12:50:00,219,8.29,8.93,9.54,9.4,70.6,1001,0,0,217.5,213.2,331.85,-23.2,
235333,2023,121,1255,2023-05-01 12:55:00,214.9,6.13,6.733,7.383,9.46,70.44,1001,0,0,208,204.2,332.01,-23.04,
235334,2023,121,1300,2023-05-01 13:00:00,210.2,6.412,7.017,7.595,9.5,70.18,1001,0,0,203.5,199.4,331.92,-23.13,
235335,2023,121,1305,2023-05-01 13:05:00,217.8,6.433,7.12,7.782,9.54,70,1001,0,0,241.4,239,330.59,-24.97,
235336,2023,121,1310,2023-05-01 13:10:00,219.9,6.437,7.06,7.632,9.5,70,1001,0,0,234.8,232.7,330.1,-25.46,
235337,2023,121,1315,2023-05-01 13:15:00,216.3,6.735,7.51,8.25,9.54,70.52,1001,0,0,198.8,195.3,330.29,-25.27,
235338,2023,121,1320,2023-05-01 13:20:00,219.4,6.862,7.573,8.26,9.52,70.3,1000,0,0,179.5,175.9,331.45,-24.11,
235339,2023,121,1325,2023-05-01 13:25:00,215.4,7.013,7.603,8.23,9.58,69.9,1000,0,0,169.6,166.6,332.97,-22.59,
235340,2023,121,1330,2023-05-01 13:30:00,218.3,6.55,7.283,7.953,9.56,70.26,1000,0,0,180.3,177.7,333.78,-21.27,
235341,2023,121,1335,2023-05-01 13:35:00,220.2,5.527,6.262,6.963,9.58,70.4,1000,0,0,193.8,191.3,334.38,-20.67,
235342,2023,121,1340,2023-05-01 13:40:00,214.6,6.19,6.93,7.678,9.62,70.04,1000,0,0,178.9,176.7,333.16,-22.4,
235343,2023,121,1345,2023-05-01 13:45:00,215.2,6.745,7.272,7.825,9.74,69.4,1000,0,0,162.6,160.4,332.44,-23.62,
235344,2023,121,1350,2023-05-01 13:50:00,217.4,6.878,7.49,8.18,9.82,68.48,1000,0,0,143.6,140.5,331.29,-25.28,
235345,2023,121,1355,2023-05-01 13:55:00,217.9,6.233,6.963,7.657,9.9,68.04,1000,0,0,142.3,138.6,331.16,-25.41,
235346,2023,121,1400,2023-05-01 14:00:00,217.9,8.54,9.19,9.78,9.9,67.14,1000,0,0,145.8,142.2,331.99,-25.08,
235347,2023,121,1405,2023-05-01 14:05:00,215.8,7.442,8.17,8.85,10.04,66.32,1000,0,0,148.7,145.3,332.21,-24.86,
235348,2023,121,1410,2023-05-01 14:10:00,217.4,6.187,6.95,7.68,10.1,65.84,1000,0,0,155.5,152.1,333.09,-24.49,
235349,2023,121,1415,2023-05-01 14:15:00,219.8,6.773,7.518,8.25,10.2,64.88,1000,0,0,119.8,117.2,336.72,-21.37,
235350,2023,121,1420,2023-05-01 14:20:00,219.8,7.228,7.932,8.61,10.2,64.42,1000,0,0,82.3,79.99,337.74,-19.84,
235351,2023,121,1425,2023-05-01 14:25:00,222.2,7.508,8.2,8.94,10.16,64.58,1000,0.037,0,69.13,67.22,337.7,-18.87,
235352,2023,121,1430,2023-05-01 14:30:00,218.8,5.787,6.627,7.417,9.94,66.12,1000,0.057,0,52.32,50.24,339.47,-15.08,
235353,2023,121,1435,2023-05-01 14:35:00,221.5,6.075,6.74,7.39,9.74,67.94,1000,0.392,0,49.69,46.97,339.84,-12.19,
235354,2023,121,1440,2023-05-01 14:40:00,224.6,4.79,5.325,5.827,9.48,70.18,1000,0.237,0,56.62,53.49,343.65,-6.882,
235355,2023,121,1445,2023-05-01 14:45:00,220.1,5.44,6.062,6.685,9.28,71.84,1000,0.385,0,69.76,67.44,340.13,-9.4,
235356,2023,121,1450,2023-05-01 14:50:00,217.9,5.642,6.208,6.783,9.16,73.16,1000,0.195,0,62.59,60.4,336.85,-11.68,
235357,2023,121,1455,2023-05-01 14:55:00,220.7,5.383,5.973,6.587,9.02,74.6,1000,0.062,0,75.26,72.56,338.12,-10.41,
235358,2023,121,1500,2023-05-01 15:00:00,219.3,6.59,7.232,7.905,9,75.34,1000,0.013,0,59.09,56.97,335.92,-12.12,
235359,2023,121,1505,2023-05-01 15:05:00,220.4,5.765,6.27,6.807,8.9,76.42,1000,1.49,0,50.97,48.52,340.41,-7.627,
235360,2023,121,1510,2023-05-01 15:10:00,219,6.79,7.313,7.863,8.8,77.6,1000,0.86,0,54.5,52.07,338.49,-9.05,
235361,2023,121,1515,2023-05-01 15:15:00,219.9,6.063,6.593,7.113,8.74,78.38,999,1.867,0,56.66,54.54,338.59,-8.45,
235362,2023,121,1520,2023-05-01 15:20:00,218.5,5.2,5.723,6.248,8.62,79.83,999,0.657,0,55.53,53.11,338.41,-8.63,
235363,2023,121,1525,2023-05-01 15:25:00,218.3,5.15,5.63,6.093,8.6,80.2,999,0.935,0,51.16,48.88,339.9,-7.141,
235364,2023,121,1530,2023-05-01 15:30:00,220.8,5.375,5.975,6.548,8.6,80.5,999,0.993,0,44.48,41.76,340.05,-6.996,
235365,2023,121,1535,2023-05-01 15:35:00,220.9,5.62,6.065,6.515,8.6,80.9,999,1.723,0,38.5,36.36,341.72,-5.324,
235366,2023,121,1540,2023-05-01 15:40:00,218,5.187,5.658,6.157,8.6,81.2,999,3.663,0,39.01,36.85,342.46,-4.581,
235367,2023,121,1545,2023-05-01 15:45:00,223.4,4.472,4.853,5.273,8.6,81.9,999,1.833,0,40.15,38.2,342.22,-4.321,
235368,2023,121,1550,2023-05-01 15:50:00,226.9,3.435,3.813,4.205,8.5,82.9,999,0.798,0,38.79,36.95,345.36,-1.189,
235369,2023,121,1555,2023-05-01 15:55:00,222.3,4.907,5.327,5.762,8.5,83,999,1.677,0,33.67,31.89,343.62,-2.926,
235370,2023,121,1600,2023-05-01 16:00:00,199,4.4,4.805,5.207,8.5,83.3,999,3.005,0,42.41,40.35,344.39,-2.157,
235371,2023,121,1605,2023-05-01 16:05:00,219.9,4.297,4.675,5.028,8.5,83.9,999,2.542,0,39.42,37.26,345.07,-1.478,
235372,2023,121,1610,2023-05-01 16:10:00,218.2,4.185,4.628,5.057,8.5,84.3,999,2.272,0,29.42,27.4,345.18,-1.369,
235373,2023,121,1615,2023-05-01 16:15:00,221,4.487,4.867,5.263,8.46,84.6,999,3.717,0,20.64,18.95,345.22,-1.327,
235374,2023,121,1620,2023-05-01 16:20:00,221.8,4.07,4.513,4.965,8.48,85,999,1.908,0,35.41,33.42,344.47,-2.074,
235375,2023,121,1625,2023-05-01 16:25:00,215.7,4.458,4.89,5.285,8.5,85.3,999,1.372,0,43.69,41.63,344.27,-2.274,
235376,2023,121,1630,2023-05-01 16:30:00,216.7,4.517,4.917,5.335,8.54,85.6,999,0.887,0,47.79,45.28,344.18,-2.866,
235377,2023,121,1635,2023-05-01 16:35:00,215.1,4.713,5.178,5.673,8.6,86,999,1.815,0,49.89,47.69,345.24,-2.298,
235378,2023,121,1640,2023-05-01 16:40:00,218.7,5.437,5.918,6.393,8.62,86.4,999,1.722,0,45.19,42.98,342.38,-5.658,
235379,2023,121,1645,2023-05-01 16:45:00,221.2,4.252,4.702,5.153,8.7,86.5,999,1.75,0,38.86,36.98,346.32,-1.712,
235380,2023,121,1650,2023-05-01 16:50:00,215.6,4.913,5.34,5.752,8.7,86.6,999,5.48,0,31.93,30.37,345.52,-2.519,
235381,2023,121,1655,2023-05-01 16:55:00,213.9,4.947,5.34,5.723,8.7,87,999,3.127,0,29.52,27.9,344.7,-3.34,
235382,2023,121,1700,2023-05-01 17:00:00,215.9,4.875,5.355,5.848,8.8,87.3,998,0.81,0,36.97,35.19,345.15,-3.379,
235383,2023,121,1705,2023-05-01 17:05:00,222.7,5.113,5.59,6.08,8.8,86.9,998,0.097,0,38.69,37.02,346.17,-2.864,
235384,2023,121,1710,2023-05-01 17:10:00,227.6,4.023,4.437,4.877,8.88,87,998,0.297,0,32.86,31.14,347.93,-1.102,
235385,2023,121,1715,2023-05-01 17:15:00,224.6,3.875,4.37,4.857,8.9,87.1,998,1.362,0,29.91,28.24,347.5,-1.528,
235386,2023,121,1720,2023-05-01 17:20:00,219.6,3.573,4.112,4.608,8.9,87.3,998,0.93,0,41.79,39.87,347.75,-1.279,
235387,2023,121,1725,2023-05-01 17:25:00,225.6,4.007,4.46,4.923,8.9,87.5,998,0.512,0,34,32.05,348.88,-0.651,
235388,2023,121,1730,2023-05-01 17:30:00,232.1,3.995,4.483,4.947,8.9,87.5,998,1.213,0,35.76,33.88,348.87,-0.661,
235389,2023,121,1735,2023-05-01 17:35:00,231.3,4.923,5.522,6.075,8.9,87.5,998,0.53,0,24.64,23.06,347.38,-2.153,
235390,2023,121,1740,2023-05-01 17:40:00,240.7,4.697,5.32,5.967,8.98,86.7,998,0.113,0,25.26,23.56,346.71,-3.317,